Regional Weather Roundup
Issued by NWS Cleveland, OH

Home | Current Version | Previous Version | Text Only | Print | Product List | Glossary Off
Versions: 1 2 3 4 5 6 7 8 9 10 11 12 13 14 15 16 17 18 19 20 21 22 23 24 25 26 27 28 29 30 31 32 33 34 35 36 37 38 39 40 41 42 43 44 45 46 47 48 49 50

000
ASUS41 KCLE 251810
RWRCLE
OHIO REGIONAL WEATHER ROUNDUP
NATIONAL WEATHER SERVICE WILMINGTON, OH
200 PM EDT MON JUL 25 2016

NOTE: "FAIR" INDICATES FEW OR NO CLOUDS BELOW 12,000 FEET WITH NO
SIGNIFICANT WEATHER AND/OR OBSTRUCTIONS TO VISIBILITY.

OHZ001>008-015>018-024>027-034-035-043-044-251900-
   NORTHWEST OHIO

CITY           SKY/WX    TMP DP  RH WIND       PRES   REMARKS
DEFIANCE       FAIR      85  69  58 VRB7      29.99S
FINDLAY        FAIR      85  66  53 SW10      29.98F
TOLEDO EXPRESS FAIR      84  72  67 W9        29.96F
TOLEDO EXEC    FAIR      86  71  60 W9        29.96F HX  91
LIMA           FAIR      82  68  62 SW6       30.01F
$$

OHZ009>014-019>023-028>033-038-089-251900-
   NORTHEAST OHIO

CITY           SKY/WX    TMP DP  RH WIND       PRES   REMARKS
CLE-HOPKINS    PTSUNNY   88  69  53 W10       29.97S HX  92
CLE-LAKEFRONT  FAIR      83  72  69 W14       29.94F
CUY CO. ARPT   PTSUNNY   86  72  62 W14       29.96F HX  92
LORAIN-ELYRIA  CLOUDY    83  70  64 NW9       29.98R
ASHTABULA      FAIR      82  76  81 W12       29.95S
AKRON-CANTON   PTSUNNY   89  69  51 NW12      29.98F HX  93
WOOSTER        FAIR      86  69  56 NW14G21   30.00S HX  90
MANSFIELD      FAIR      85  65  51 W9        30.02S
YOUNGSTOWN     CLOUDY    85  69  58 W16       29.96S
$$

OHZ042-051>053-060>062-070>072-077>081-251900-
  SOUTHWEST OHIO

CITY           SKY/WX    TMP DP  RH WIND       PRES   REMARKS
CINC-COVINGTON PTSUNNY   90  75  61 W8        30.00F HX 100
CINC-LUNKEN    PTSUNNY   91  75  59 W12       29.98F HX 101
HAMILTON       PTSUNNY   90  72  55 NW13      30.00F HX  97
DAYTON         PTSUNNY   87  68  52 W12       30.03F HX  90
WRIGHT-PAT AFB FAIR      89  71  55 W13       30.00F HX  94
DAYTON GENERAL FAIR      89  70  53 W9        30.01F HX  94
WILMINGTON     FAIR      90  74  59 W9        30.00F HX  99
$$

OHZ036-037-039>041-045>050-054>059-063>069-073>076-082>088-251900-
  CENTRAL AND SOUTHEAST OHIO

CITY           SKY/WX    TMP DP  RH WIND       PRES   REMARKS
COLUMBUS       PTSUNNY   91  69  48 W12       29.98F HX  96
OSU AIRPORT    FAIR      90  69  50 W14       29.99F HX  94
BOLTON FIELD   SUNNY    N/A N/A N/A W6        30.00F
RICKENBACK AFB FAIR      91  69  48 NW10      29.98F HX  95
NEWARK         FAIR      93  68  43 W9        29.98F HX  97
MARION         FAIR      85  65  51 W9        30.02S
LANCASTER      FAIR      90  72  55 W9        29.99F HX  97
ZANESVILLE     FAIR      96  68  39 W10G20    29.97F HX 101
NEW PHILLY     PTSUNNY   95  68  41 W12G20    29.96F HX  99
$$




USA.gov is the U.S. government's official web portal to all federal, state and local government web resources and services.